,,PA_Meas_PMT16A,,PR_Meas_QMR101_102,,RH_Meas_QMH101,,SR_Meas_QMS101,,TA_Meas_QMH101,,GenWind,,GenWind,
time,status,PA,status,PR,status,RH,status,SR,status,TA,status,DirAvg,status,SpdAvg,
2011-09-07, 00:00:04,VALID,918.024,VALID,0,VALID,97.473,VALID,0,VALID,20.2684,VALID,9,VALID,0.804688,
2011-09-07, 00:01:04,VALID,918.029,VALID,0,VALID,97.473,VALID,0,VALID,20.2489,VALID,9,VALID,0.767969,
2011-09-07, 00:02:04,VALID,917.979,VALID,0,VALID,97.4882,VALID,0,VALID,20.2489,VALID,8,VALID,0.987109,
2011-09-07, 00:03:04,VALID,917.986,VALID,0,VALID,97.473,VALID,0,VALID,20.2473,VALID,8,VALID,0.751562,
2011-09-07, 00:04:04,VALID,918.001,VALID,0,VALID,97.4882,VALID,0,VALID,20.2668,VALID,9,VALID,0.508594,
2011-09-07, 00:05:04,VALID,917.966,VALID,0,VALID,97.473,VALID,0,VALID,20.3074,VALID,8,VALID,0.349609,
2011-09-07, 00:06:04,VALID,917.964,VALID,0,VALID,97.4882,VALID,0,VALID,20.3464,VALID,8,VALID,0.749219,
2011-09-07, 00:07:04,VALID,917.985,VALID,0,VALID,97.4882,VALID,0,VALID,20.3253,VALID,8,VALID,0.692187,
2011-09-07, 00:08:04,VALID,917.952,VALID,0,VALID,97.4959,VALID,0.107441,VALID,20.3643,VALID,8,VALID,0.732031,
2011-09-07, 00:09:04,VALID,917.968,VALID,0,VALID,97.4806,VALID,0,VALID,20.3643,VALID,8,VALID,0.848047,
2011-09-07, 00:10:04,VALID,917.969,VALID,0,VALID,97.5035,VALID,0,VALID,20.3854,VALID,88,VALID,1.34453,
2011-09-07, 00:11:04,VALID,917.956,VALID,0,VALID,97.5187,VALID,0,VALID,20.4049,VALID,166,VALID,1.12031,
2011-09-07, 00:12:04,VALID,917.925,VALID,0,VALID,97.5111,VALID,0,VALID,20.4049,VALID,101,VALID,0.583984,
2011-09-07, 00:13:04,VALID,917.924,VALID,0,VALID,97.5035,VALID,0,VALID,20.3854,VALID,130,VALID,0.758594,
2011-09-07, 00:14:04,VALID,917.93,VALID,0,VALID,97.5035,VALID,0,VALID,20.3643,VALID,145,VALID,0.776172,
2011-09-07, 00:15:04,VALID,917.934,VALID,0,VALID,97.5111,VALID,0,VALID,20.3838,VALID,157,VALID,0.769531,
2011-09-07, 00:16:04,VALID,917.934,VALID,0,VALID,97.4959,VALID,0,VALID,20.3643,VALID,152,VALID,1.07539,
2011-09-07, 00:17:04,VALID,917.932,VALID,0,VALID,97.4882,VALID,0,VALID,20.3659,VALID,165,VALID,1.01328,
2011-09-07, 00:18:04,VALID,917.925,VALID,0,VALID,97.5187,VALID,0,VALID,20.3464,VALID,133,VALID,0.929688,
2011-09-07, 00:19:04,VALID,917.933,VALID,0,VALID,97.534,VALID,0,VALID,20.3058,VALID,133,VALID,0.489844,
2011-09-07, 00:20:04,VALID,917.937,VALID,0,VALID,97.5035,VALID,0,VALID,20.3253,VALID,133,VALID,0.629687,
2011-09-07, 00:21:04,VALID,917.927,VALID,0,VALID,97.5187,VALID,0,VALID,20.3058,VALID,133,VALID,0.308203,
2011-09-07, 00:22:04,VALID,917.958,VALID,0,VALID,97.5035,VALID,0,VALID,20.3269,VALID,133,VALID,0.236719,
2011-09-07, 00:23:04,VALID,917.956,VALID,0,VALID,97.5187,VALID,0,VALID,20.2879,VALID,133,VALID,0.759375,
2011-09-07, 00:24:04,VALID,917.987,VALID,0,VALID,97.5264,VALID,0,VALID,20.2473,VALID,133,VALID,1.00039,
2011-09-07, 00:25:04,VALID,917.99,VALID,0,VALID,97.5187,VALID,0,VALID,20.2278,VALID,133,VALID,0.446875,
2011-09-07, 00:26:04,VALID,918.002,VALID,0,VALID,97.5187,VALID,0,VALID,20.2083,VALID,133,VALID,0.458203,
2011-09-07, 00:27:04,VALID,917.988,VALID,0,VALID,97.5264,VALID,0,VALID,20.2098,VALID,133,VALID,0.503906,
2011-09-07, 00:28:04,VALID,918.014,VALID,0,VALID,97.5187,VALID,0,VALID,20.2083,VALID,133,VALID,0.352734,
2011-09-07, 00:29:04,VALID,918.028,VALID,0,VALID,97.5187,VALID,0,VALID,20.1903,VALID,133,VALID,0.480469,
2011-09-07, 00:30:04,VALID,918.036,VALID,0,VALID,97.534,VALID,0,VALID,20.1693,VALID,133,VALID,0.0539063,
2011-09-07, 00:31:04,VALID,918.024,VALID,0,VALID,97.5416,VALID,0,VALID,20.1903,VALID,133,VALID,0.318359,
2011-09-07, 00:32:04,VALID,918.029,VALID,0,VALID,97.5187,VALID,0,VALID,20.1498,VALID,133,VALID,0.243359,
2011-09-07, 00:33:04,VALID,918.006,VALID,0,VALID,97.534,VALID,0,VALID,20.1903,VALID,133,VALID,0.176563,
2011-09-07, 00:34:04,VALID,918.024,VALID,0,VALID,97.5416,VALID,0,VALID,20.1888,VALID,133,VALID,0.251172,
2011-09-07, 00:35:04,VALID,918.036,VALID,0,VALID,97.5416,VALID,0,VALID,20.1693,VALID,133,VALID,0.274609,
2011-09-07, 00:36:04,VALID,918.055,VALID,0,VALID,97.5416,VALID,0,VALID,20.2098,VALID,133,VALID,0.0582031,
2011-09-07, 00:37:04,VALID,918.058,VALID,0,VALID,97.5264,VALID,0.107441,VALID,20.2098,VALID,133,VALID,0.386328,
2011-09-07, 00:38:04,VALID,918.051,VALID,0,VALID,97.5492,VALID,0,VALID,20.1888,VALID,133,VALID,0.341406,
2011-09-07, 00:39:04,VALID,918.03,VALID,0,VALID,97.5416,VALID,0,VALID,20.1888,VALID,133,VALID,0.244922,
2011-09-07, 00:40:04,VALID,918.027,VALID,0,VALID,97.5492,VALID,0,VALID,20.2293,VALID,133,VALID,0.241797,
2011-09-07, 00:41:04,VALID,918.021,VALID,0,VALID,97.534,VALID,0,VALID,20.2489,VALID,133,VALID,0.164063,
2011-09-07, 00:42:04,VALID,918.029,VALID,0,VALID,97.5264,VALID,0,VALID,20.2489,VALID,133,VALID,0,
2011-09-07, 00:43:04,VALID,918.001,VALID,0,VALID,97.534,VALID,0,VALID,20.2489,VALID,133,VALID,0.442969,
2011-09-07, 00:44:04,VALID,918.008,VALID,0,VALID,97.5569,VALID,0,VALID,20.2489,VALID,133,VALID,0.263281,
2011-09-07, 00:45:04,VALID,918.025,VALID,0,VALID,97.5416,VALID,0,VALID,20.2293,VALID,133,VALID,0.419531,
2011-09-07, 00:46:04,VALID,918.023,VALID,0,VALID,97.5264,VALID,0,VALID,20.1708,VALID,133,VALID,0.730469,
2011-09-07, 00:47:04,VALID,918.033,VALID,0,VALID,97.5492,VALID,0,VALID,20.0913,VALID,133,VALID,1.00625,
2011-09-07, 00:48:04,VALID,918.065,VALID,0,VALID,97.5264,VALID,0,VALID,20.0733,VALID,133,VALID,0.717969,
2011-09-07, 00:49:04,VALID,918.031,VALID,0,VALID,97.5187,VALID,0,VALID,20.0328,VALID,133,VALID,0.495703,
2011-09-07, 00:50:04,VALID,918.017,VALID,0,VALID,97.534,VALID,0,VALID,20.0328,VALID,133,VALID,0.341797,
2011-09-07, 00:51:04,VALID,917.992,VALID,0,VALID,97.5416,VALID,0,VALID,20.0133,VALID,133,VALID,0.100391,
2011-09-07, 00:52:04,VALID,917.982,VALID,0,VALID,97.5416,VALID,0,VALID,20.0148,VALID,133,VALID,0.0816406,
2011-09-07, 00:53:04,VALID,917.958,VALID,0,VALID,97.5569,VALID,0,VALID,20.0343,VALID,133,VALID,0.221875,
2011-09-07, 00:54:04,VALID,917.926,VALID,0,VALID,97.5645,VALID,0,VALID,20.0928,VALID,133,VALID,0.259375,
2011-09-07, 00:55:04,VALID,917.936,VALID,0,VALID,97.5873,VALID,0,VALID,20.1318,VALID,133,VALID,0.576563,
2011-09-07, 00:56:04,VALID,917.914,VALID,0,VALID,97.5569,VALID,0,VALID,20.0133,VALID,133,VALID,0.828516,
2011-09-07, 00:57:04,VALID,917.879,VALID,0,VALID,97.5645,VALID,0,VALID,19.9368,VALID,133,VALID,1.00937,
2011-09-07, 00:58:04,VALID,917.858,VALID,0,VALID,97.5416,VALID,0,VALID,19.8768,VALID,133,VALID,0.88125,
2011-09-07, 00:59:04,VALID,917.844,VALID,0,VALID,97.5645,VALID,0,VALID,19.8588,VALID,132,VALID,0.84375,
2011-09-07, 01:00:04,VALID,917.803,VALID,0,VALID,97.5797,VALID,0,VALID,19.8378,VALID,133,VALID,0.727734,
2011-09-07, 01:01:04,VALID,917.795,VALID,0,VALID,97.5645,VALID,0,VALID,19.8183,VALID,132,VALID,0.763672,
2011-09-07, 01:02:04,VALID,917.76,VALID,0,VALID,97.5797,VALID,0,VALID,19.8393,VALID,132,VALID,0.614844,
2011-09-07, 01:03:04,VALID,917.734,VALID,0,VALID,97.595,VALID,0,VALID,19.8573,VALID,132,VALID,0.637109,
2011-09-07, 01:04:04,VALID,917.731,VALID,0,VALID,97.5721,VALID,0,VALID,19.8588,VALID,132,VALID,0.373047,
2011-09-07, 01:05:04,VALID,917.753,VALID,0,VALID,97.595,VALID,0,VALID,19.8573,VALID,132,VALID,0.341797,
2011-09-07, 01:06:04,VALID,917.729,VALID,0,VALID,97.5873,VALID,0,VALID,19.8588,VALID,132,VALID,0.388281,
2011-09-07, 01:07:04,VALID,917.729,VALID,0,VALID,97.5721,VALID,0,VALID,19.8588,VALID,132,VALID,0.417188,
2011-09-07, 01:08:04,VALID,917.744,VALID,0,VALID,97.6026,VALID,0,VALID,19.8783,VALID,132,VALID,0.633594,
2011-09-07, 01:09:04,VALID,917.736,VALID,0,VALID,97.5873,VALID,0,VALID,19.8393,VALID,132,VALID,0.837891,
2011-09-07, 01:10:04,VALID,917.697,VALID,0,VALID,97.6102,VALID,0,VALID,19.8588,VALID,132,VALID,0.785937,
2011-09-07, 01:11:04,VALID,917.664,VALID,0,VALID,97.5797,VALID,0,VALID,19.8378,VALID,132,VALID,0.865234,
2011-09-07, 01:12:04,VALID,917.67,VALID,0,VALID,97.6102,VALID,0,VALID,19.8588,VALID,132,VALID,0.994531,
2011-09-07, 01:13:04,VALID,917.663,VALID,0,VALID,97.6178,VALID,0,VALID,19.8378,VALID,132,VALID,1.08594,
2011-09-07, 01:14:04,VALID,917.619,VALID,0,VALID,97.595,VALID,0,VALID,19.8783,VALID,132,VALID,1.05156,
2011-09-07, 01:15:04,VALID,917.59,VALID,0,VALID,97.6178,VALID,0,VALID,19.8783,VALID,132,VALID,0.920703,
2011-09-07, 01:16:04,VALID,917.591,VALID,0,VALID,97.6026,VALID,0,VALID,19.8978,VALID,132,VALID,0.846875,
2011-09-07, 01:17:04,VALID,917.576,VALID,0,VALID,97.6178,VALID,0,VALID,19.8378,VALID,132,VALID,0.5875,
2011-09-07, 01:18:04,VALID,917.587,VALID,0,VALID,97.6178,VALID,0,VALID,19.8393,VALID,132,VALID,0.686328,
2011-09-07, 01:19:04,VALID,917.554,VALID,0,VALID,97.6178,VALID,0,VALID,19.7793,VALID,132,VALID,0.632813,
2011-09-07, 01:20:04,VALID,917.545,VALID,0,VALID,97.6331,VALID,0,VALID,19.7808,VALID,132,VALID,0.523438,
2011-09-07, 01:21:04,VALID,917.542,VALID,0,VALID,97.6331,VALID,0,VALID,19.7808,VALID,132,VALID,0.294531,
2011-09-07, 01:22:04,VALID,917.565,VALID,0,VALID,97.6331,VALID,0,VALID,19.7808,VALID,132,VALID,0.161719,
2011-09-07, 01:23:04,VALID,917.564,VALID,0,VALID,97.6407,VALID,0,VALID,19.7418,VALID,133,VALID,0.227734,
2011-09-07, 01:24:04,VALID,917.559,VALID,0,VALID,97.6102,VALID,0,VALID,19.7013,VALID,133,VALID,0.325391,
2011-09-07, 01:25:04,VALID,917.544,VALID,0,VALID,97.6407,VALID,0,VALID,19.6833,VALID,132,VALID,0.230859,
2011-09-07, 01:26:04,VALID,917.535,VALID,0,VALID,97.6407,VALID,0,VALID,19.6443,VALID,132,VALID,0.250781,
2011-09-07, 01:27:04,VALID,917.531,VALID,0,VALID,97.6331,VALID,0,VALID,19.6428,VALID,132,VALID,0.234375,
2011-09-07, 01:28:04,VALID,917.525,VALID,0,VALID,97.6483,VALID,0,VALID,19.6428,VALID,132,VALID,0.090625,
2011-09-07, 01:29:04,VALID,917.55,VALID,0,VALID,97.6483,VALID,0,VALID,19.6623,VALID,132,VALID,0.273438,
2011-09-07, 01:30:04,VALID,917.528,VALID,0,VALID,97.6407,VALID,0,VALID,19.7028,VALID,132,VALID,0.375,
2011-09-07, 01:31:04,VALID,917.524,VALID,0,VALID,97.6483,VALID,0,VALID,19.7223,VALID,132,VALID,0.334766,
2011-09-07, 01:32:04,VALID,917.517,VALID,0,VALID,97.656,VALID,0,VALID,19.7613,VALID,133,VALID,0.329688,
2011-09-07, 01:33:04,VALID,917.54,VALID,0,VALID,97.6712,VALID,0,VALID,19.7988,VALID,133,VALID,0,
2011-09-07, 01:34:04,VALID,917.502,VALID,0,VALID,97.656,VALID,0,VALID,19.8393,VALID,133,VALID,0,
2011-09-07, 01:35:04,VALID,917.47,VALID,0,VALID,97.6636,VALID,0,VALID,19.8588,VALID,132,VALID,0.279687,
2011-09-07, 01:36:04,VALID,917.441,VALID,0,VALID,97.6407,VALID,0,VALID,19.8393,VALID,132,VALID,0.341016,
2011-09-07, 01:37:04,VALID,917.446,VALID,0,VALID,97.6483,VALID,0,VALID,19.8198,VALID,132,VALID,0.497266,
2011-09-07, 01:38:04,VALID,917.402,VALID,0,VALID,97.6407,VALID,0,VALID,19.7808,VALID,132,VALID,0.627734,
2011-09-07, 01:39:04,VALID,917.396,VALID,0,VALID,97.6636,VALID,0,VALID,19.7418,VALID,132,VALID,0.496484,
2011-09-07, 01:40:04,VALID,917.351,VALID,0,VALID,97.656,VALID,0,VALID,19.7223,VALID,132,VALID,0.38125,
2011-09-07, 01:41:04,VALID,917.309,VALID,0,VALID,97.6483,VALID,0,VALID,19.6638,VALID,132,VALID,0.202734,
2011-09-07, 01:42:04,VALID,917.309,VALID,0,VALID,97.6483,VALID,0,VALID,19.6638,VALID,132,VALID,0.00195313,
2011-09-07, 01:43:04,VALID,917.294,VALID,0,VALID,97.6483,VALID,0,VALID,19.6638,VALID,132,VALID,0,
2011-09-07, 01:44:04,VALID,917.314,VALID,0,VALID,97.6636,VALID,0,VALID,19.6248,VALID,132,VALID,0.407422,
2011-09-07, 01:45:04,VALID,917.286,VALID,0,VALID,97.6483,VALID,0,VALID,19.5663,VALID,132,VALID,0.777734,
2011-09-07, 01:46:04,VALID,917.273,VALID,0,VALID,97.656,VALID,0,VALID,19.5648,VALID,132,VALID,0.949219,
2011-09-07, 01:47:04,VALID,917.259,VALID,0,VALID,97.6788,VALID,0,VALID,19.5273,VALID,132,VALID,1.32461,
2011-09-07, 01:48:04,VALID,917.266,VALID,0,VALID,97.656,VALID,0,VALID,19.5273,VALID,132,VALID,1.3207,
2011-09-07, 01:49:04,VALID,917.262,VALID,0,VALID,97.6788,VALID,0,VALID,19.5468,VALID,132,VALID,1.31055,
2011-09-07, 01:50:04,VALID,917.244,VALID,0,VALID,97.6865,VALID,0,VALID,19.5078,VALID,132,VALID,1.06445,
2011-09-07, 01:51:04,VALID,917.202,VALID,0,VALID,97.6865,VALID,0,VALID,19.4298,VALID,132,VALID,1.18516,
2011-09-07, 01:52:04,VALID,917.178,VALID,0,VALID,97.7093,VALID,0,VALID,19.3908,VALID,132,VALID,1.33438,
2011-09-07, 01:53:04,VALID,917.163,VALID,0,VALID,97.6941,VALID,0,VALID,19.4103,VALID,132,VALID,0.897656,
2011-09-07, 01:54:04,VALID,917.108,VALID,0,VALID,97.6865,VALID,0,VALID,19.4298,VALID,132,VALID,0.957812,
2011-09-07, 01:55:04,VALID,917.097,VALID,0,VALID,97.7169,VALID,0,VALID,19.4493,VALID,132,VALID,0.746484,
2011-09-07, 01:56:04,VALID,917.091,VALID,0,VALID,97.7017,VALID,0.107441,VALID,19.4088,VALID,132,VALID,0.641797,
2011-09-07, 01:57:04,VALID,917.042,VALID,0,VALID,97.7169,VALID,0,VALID,19.3893,VALID,132,VALID,0.948828,
2011-09-07, 01:58:04,VALID,917.052,VALID,0,VALID,97.7093,VALID,0,VALID,19.4298,VALID,132,VALID,1.01758,
2011-09-07, 01:59:04,VALID,917.034,VALID,0,VALID,97.7169,VALID,0,VALID,19.4103,VALID,132,VALID,0.516797,
2011-09-07, 02:00:04,VALID,917.036,VALID,0,VALID,97.7169,VALID,0,VALID,19.4103,VALID,132,VALID,0.221875,
2011-09-07, 02:01:04,VALID,917.041,VALID,0,VALID,97.7246,VALID,0,VALID,19.4298,VALID,132,VALID,0.421484,
2011-09-07, 02:02:04,VALID,917.036,VALID,0,VALID,97.7169,VALID,0,VALID,19.4508,VALID,132,VALID,0.772266,
2011-09-07, 02:03:04,VALID,917.009,VALID,0,VALID,97.7093,VALID,0,VALID,19.4298,VALID,132,VALID,0.303516,
2011-09-07, 02:04:04,VALID,917.017,VALID,0,VALID,97.7017,VALID,0,VALID,19.4298,VALID,132,VALID,0.491016,
2011-09-07, 02:05:04,VALID,917.003,VALID,0,VALID,97.7246,VALID,0,VALID,19.4298,VALID,132,VALID,0.00195313,
2011-09-07, 02:06:04,VALID,917.007,VALID,0,VALID,97.7246,VALID,0,VALID,19.4493,VALID,132,VALID,0.300781,
2011-09-07, 02:07:04,VALID,916.955,VALID,0,VALID,97.7246,VALID,0,VALID,19.4298,VALID,132,VALID,0.651953,
2011-09-07, 02:08:04,VALID,916.971,VALID,0,VALID,97.7322,VALID,0,VALID,19.4298,VALID,132,VALID,0.928125,
2011-09-07, 02:09:04,VALID,916.954,VALID,0,VALID,97.7627,VALID,0,VALID,19.4493,VALID,132,VALID,1.0375,
2011-09-07, 02:10:04,VALID,916.937,VALID,0,VALID,97.7322,VALID,0,VALID,19.4298,VALID,133,VALID,0.999219,
2011-09-07, 02:11:04,VALID,916.919,VALID,0,VALID,97.7398,VALID,0,VALID,19.4103,VALID,133,VALID,0.875,
2011-09-07, 02:12:04,VALID,916.899,VALID,0,VALID,97.7474,VALID,0,VALID,19.3908,VALID,133,VALID,0.996094,
2011-09-07, 02:13:04,VALID,916.87,VALID,0,VALID,97.7474,VALID,0,VALID,19.3908,VALID,133,VALID,1.13125,
2011-09-07, 02:14:04,VALID,916.877,VALID,0,VALID,97.7322,VALID,0,VALID,19.3908,VALID,133,VALID,0.341016,
2011-09-07, 02:15:04,VALID,916.895,VALID,0,VALID,97.7398,VALID,0,VALID,19.4103,VALID,133,VALID,0.234375,
2011-09-07, 02:16:04,VALID,916.884,VALID,0,VALID,97.7474,VALID,0,VALID,19.4493,VALID,133,VALID,0,
2011-09-07, 02:17:04,VALID,916.834,VALID,0,VALID,97.7474,VALID,0,VALID,19.4883,VALID,133,VALID,0.075,
2011-09-07, 02:18:04,VALID,916.865,VALID,0,VALID,97.7474,VALID,0,VALID,19.5078,VALID,133,VALID,0.214453,
2011-09-07, 02:19:04,VALID,916.86,VALID,0,VALID,97.7779,VALID,0,VALID,19.5078,VALID,133,VALID,0.317187,
2011-09-07, 02:20:04,VALID,916.864,VALID,0,VALID,97.7551,VALID,0,VALID,19.5078,VALID,133,VALID,0.283594,
2011-09-07, 02:21:04,VALID,916.826,VALID,0,VALID,97.7474,VALID,0,VALID,19.5078,VALID,133,VALID,0.289453,
2011-09-07, 02:22:04,VALID,916.876,VALID,0,VALID,97.7627,VALID,0,VALID,19.5468,VALID,133,VALID,0.680078,
2011-09-07, 02:23:04,VALID,916.847,VALID,0,VALID,97.7551,VALID,0,VALID,19.5468,VALID,133,VALID,0.917188,
2011-09-07, 02:24:04,VALID,916.86,VALID,0,VALID,97.7627,VALID,0,VALID,19.5468,VALID,133,VALID,0.718359,
2011-09-07, 02:25:04,VALID,916.882,VALID,0,VALID,97.7551,VALID,0,VALID,19.5858,VALID,133,VALID,0.791406,
2011-09-07, 02:26:04,VALID,916.846,VALID,0,VALID,97.7551,VALID,0,VALID,19.5858,VALID,133,VALID,0.432422,
2011-09-07, 02:27:04,VALID,916.834,VALID,0,VALID,97.7474,VALID,0,VALID,19.5663,VALID,133,VALID,0.475781,
2011-09-07, 02:28:04,VALID,916.83,VALID,0,VALID,97.7474,VALID,0,VALID,19.5858,VALID,133,VALID,0.693359,
2011-09-07, 02:29:04,VALID,916.825,VALID,0,VALID,97.7474,VALID,0,VALID,19.5468,VALID,133,VALID,0.851953,
2011-09-07, 02:30:04,VALID,916.805,VALID,0,VALID,97.7551,VALID,0,VALID,19.5468,VALID,134,VALID,0.760156,
2011-09-07, 02:31:04,VALID,916.797,VALID,0,VALID,97.7474,VALID,0,VALID,19.5663,VALID,134,VALID,0.781641,
2011-09-07, 02:32:04,VALID,916.786,VALID,0,VALID,97.7627,VALID,0,VALID,19.5663,VALID,134,VALID,0.875781,
2011-09-07, 02:33:04,VALID,916.784,VALID,0,VALID,97.7551,VALID,0,VALID,19.5663,VALID,134,VALID,0.897656,
2011-09-07, 02:34:04,VALID,916.747,VALID,0,VALID,97.7551,VALID,0,VALID,19.5663,VALID,134,VALID,0.669141,
2011-09-07, 02:35:04,VALID,916.721,VALID,0,VALID,97.7703,VALID,0,VALID,19.5663,VALID,134,VALID,0.405078,
2011-09-07, 02:36:04,VALID,916.689,VALID,0,VALID,97.7398,VALID,0,VALID,19.5663,VALID,134,VALID,0.460547,
2011-09-07, 02:37:04,VALID,916.688,VALID,0,VALID,97.7551,VALID,0,VALID,19.5858,VALID,134,VALID,0.486719,
2011-09-07, 02:38:04,VALID,916.686,VALID,0,VALID,97.7398,VALID,0,VALID,19.5858,VALID,165,VALID,0.962891,
2011-09-07, 02:39:04,VALID,916.675,VALID,0,VALID,97.7627,VALID,0,VALID,19.5663,VALID,159,VALID,1.15195,
2011-09-07, 02:40:04,VALID,916.714,VALID,0,VALID,97.7627,VALID,0,VALID,19.5468,VALID,154,VALID,0.802734,
2011-09-07, 02:41:04,VALID,916.693,VALID,0,VALID,97.7779,VALID,0,VALID,19.5468,VALID,166,VALID,0.550781,
2011-09-07, 02:42:04,VALID,916.669,VALID,0,VALID,97.7703,VALID,0,VALID,19.5663,VALID,166,VALID,0.235156,
2011-09-07, 02:43:04,VALID,916.699,VALID,0,VALID,97.7551,VALID,0,VALID,19.5663,VALID,166,VALID,0.05,
2011-09-07, 02:44:04,VALID,916.698,VALID,0,VALID,97.7551,VALID,0,VALID,19.5663,VALID,166,VALID,0.475,
2011-09-07, 02:45:04,VALID,916.681,VALID,0,VALID,97.7779,VALID,0,VALID,19.5468,VALID,152,VALID,0.85625,
2011-09-07, 02:46:04,VALID,916.714,VALID,0,VALID,97.7551,VALID,0,VALID,19.5663,VALID,152,VALID,0.672266,
2011-09-07, 02:47:04,VALID,916.713,VALID,0,VALID,97.7856,VALID,0,VALID,19.5078,VALID,152,VALID,0.793359,
2011-09-07, 02:48:04,VALID,916.716,VALID,0,VALID,97.7779,VALID,0,VALID,19.5093,VALID,115,VALID,1.04414,
2011-09-07, 02:49:04,VALID,916.715,VALID,0,VALID,97.7856,VALID,0,VALID,19.5078,VALID,110,VALID,1.14844,
2011-09-07, 02:50:04,VALID,916.706,VALID,0,VALID,97.7779,VALID,0,VALID,19.5078,VALID,110,VALID,0.652344,
2011-09-07, 02:51:04,VALID,916.684,VALID,0,VALID,97.7779,VALID,0,VALID,19.5078,VALID,110,VALID,0.752344,
2011-09-07, 02:52:04,VALID,916.689,VALID,0,VALID,97.7779,VALID,0,VALID,19.4868,VALID,110,VALID,0.751172,
2011-09-07, 02:53:04,VALID,916.678,VALID,0,VALID,97.7703,VALID,0,VALID,19.5093,VALID,110,VALID,0.692187,
2011-09-07, 02:54:04,VALID,916.689,VALID,0,VALID,97.7627,VALID,0,VALID,19.4688,VALID,110,VALID,1.26602,
2011-09-07, 02:55:04,VALID,916.699,VALID,0,VALID,97.7856,VALID,0,VALID,19.4493,VALID,110,VALID,0.920703,
2011-09-07, 02:56:04,VALID,916.706,VALID,0,VALID,97.7932,VALID,0,VALID,19.4298,VALID,110,VALID,1.03594,
2011-09-07, 02:57:04,VALID,916.716,VALID,0,VALID,97.7627,VALID,0,VALID,19.4508,VALID,110,VALID,1.50391,
2011-09-07, 02:58:04,VALID,916.732,VALID,0,VALID,97.7932,VALID,0,VALID,19.4298,VALID,110,VALID,1.2168,
2011-09-07, 02:59:04,VALID,916.735,VALID,0,VALID,97.7932,VALID,0,VALID,19.4103,VALID,110,VALID,0.609375,
2011-09-07, 03:00:04,VALID,916.765,VALID,0,VALID,97.7932,VALID,0,VALID,19.3908,VALID,110,VALID,0.671875,
2011-09-07, 03:01:04,VALID,916.752,VALID,0,VALID,97.8008,VALID,0,VALID,19.3908,VALID,110,VALID,0.906641,
2011-09-07, 03:02:04,VALID,916.75,VALID,0,VALID,97.7779,VALID,0,VALID,19.4118,VALID,114,VALID,0.470703,
2011-09-07, 03:03:04,VALID,916.748,VALID,0,VALID,97.7932,VALID,0,VALID,19.4298,VALID,114,VALID,0.328125,
2011-09-07, 03:04:04,VALID,916.765,VALID,0,VALID,97.8008,VALID,0,VALID,19.4298,VALID,114,VALID,0.350781,
2011-09-07, 03:05:04,VALID,916.751,VALID,0,VALID,97.7779,VALID,0,VALID,19.4493,VALID,114,VALID,0.477734,
2011-09-07, 03:06:04,VALID,916.783,VALID,0,VALID,97.816,VALID,0,VALID,19.4493,VALID,114,VALID,0.8125,
2011-09-07, 03:07:04,VALID,916.803,VALID,0,VALID,97.816,VALID,0,VALID,19.4883,VALID,115,VALID,0.757422,
2011-09-07, 03:08:04,VALID,916.846,VALID,0,VALID,97.7932,VALID,0,VALID,19.5078,VALID,115,VALID,0.0179687,
2011-09-07, 03:09:04,VALID,916.836,VALID,0,VALID,97.8084,VALID,0,VALID,19.5483,VALID,115,VALID,0.410156,
2011-09-07, 03:10:04,VALID,916.824,VALID,0,VALID,97.7932,VALID,0,VALID,19.5468,VALID,171,VALID,0.76875,
2011-09-07, 03:11:04,VALID,916.847,VALID,0,VALID,97.8008,VALID,0,VALID,19.5468,VALID,184,VALID,0.598047,
2011-09-07, 03:12:04,VALID,916.841,VALID,0,VALID,97.7856,VALID,0,VALID,19.5468,VALID,184,VALID,0.727734,
2011-09-07, 03:13:04,VALID,916.834,VALID,0,VALID,97.8008,VALID,0,VALID,19.5468,VALID,184,VALID,0.902734,
2011-09-07, 03:14:04,VALID,916.862,VALID,0,VALID,97.816,VALID,0,VALID,19.5468,VALID,184,VALID,0.745703,
2011-09-07, 03:15:04,VALID,916.836,VALID,0,VALID,97.8008,VALID,0,VALID,19.5858,VALID,184,VALID,0.601563,
2011-09-07, 03:16:04,VALID,916.829,VALID,0,VALID,97.8008,VALID,0,VALID,19.6053,VALID,184,VALID,0.626172,
2011-09-07, 03:17:04,VALID,916.863,VALID,0,VALID,97.8084,VALID,0,VALID,19.5858,VALID,184,VALID,0.628125,
2011-09-07, 03:18:04,VALID,916.872,VALID,0,VALID,97.8084,VALID,0,VALID,19.6053,VALID,184,VALID,0.605078,
2011-09-07, 03:19:04,VALID,916.866,VALID,0,VALID,97.7932,VALID,0,VALID,19.5858,VALID,184,VALID,0.852344,
2011-09-07, 03:20:04,VALID,916.87,VALID,0,VALID,97.7932,VALID,0,VALID,19.5663,VALID,184,VALID,0.604297,
2011-09-07, 03:21:04,VALID,916.856,VALID,0,VALID,97.816,VALID,0,VALID,19.5273,VALID,184,VALID,0.605859,
2011-09-07, 03:22:04,VALID,916.85,VALID,0,VALID,97.7856,VALID,0,VALID,19.4883,VALID,184,VALID,0.45625,
2011-09-07, 03:23:04,VALID,916.827,VALID,0,VALID,97.816,VALID,0,VALID,19.4883,VALID,148,VALID,0.589063,
2011-09-07, 03:24:04,VALID,916.805,VALID,0,VALID,97.816,VALID,0,VALID,19.4493,VALID,148,VALID,0.710938,
2011-09-07, 03:25:04,VALID,916.832,VALID,0,VALID,97.816,VALID,0,VALID,19.4493,VALID,148,VALID,0.55625,
2011-09-07, 03:26:04,VALID,916.802,VALID,0,VALID,97.8237,VALID,0,VALID,19.4298,VALID,148,VALID,0.601172,
2011-09-07, 03:27:04,VALID,916.808,VALID,0,VALID,97.8008,VALID,0,VALID,19.4313,VALID,148,VALID,0.589453,
2011-09-07, 03:28:04,VALID,916.803,VALID,0,VALID,97.816,VALID,0,VALID,19.3923,VALID,148,VALID,0.580078,
2011-09-07, 03:29:04,VALID,916.826,VALID,0,VALID,97.8313,VALID,0,VALID,19.3923,VALID,148,VALID,0.638672,
2011-09-07, 03:30:04,VALID,916.813,VALID,0,VALID,97.816,VALID,0,VALID,19.3323,VALID,148,VALID,0.561719,
2011-09-07, 03:31:04,VALID,916.813,VALID,0,VALID,97.8389,VALID,0,VALID,19.2933,VALID,148,VALID,0.3625,
2011-09-07, 03:32:04,VALID,916.813,VALID,0,VALID,97.8237,VALID,0,VALID,19.2543,VALID,148,VALID,0.522266,
2011-09-07, 03:33:04,VALID,916.854,VALID,0,VALID,97.8237,VALID,0,VALID,19.1958,VALID,148,VALID,0.451562,
2011-09-07, 03:34:04,VALID,916.833,VALID,0,VALID,97.816,VALID,0,VALID,19.1958,VALID,148,VALID,0.374609,
2011-09-07, 03:35:04,VALID,916.842,VALID,0,VALID,97.8465,VALID,0,VALID,19.1973,VALID,148,VALID,0.320313,
2011-09-07, 03:36:04,VALID,916.808,VALID,0,VALID,97.8465,VALID,0,VALID,19.1763,VALID,148,VALID,0.234766,
2011-09-07, 03:37:04,VALID,916.806,VALID,0,VALID,97.8465,VALID,0,VALID,19.2168,VALID,148,VALID,0.283203,
2011-09-07, 03:38:04,VALID,916.796,VALID,0,VALID,97.8465,VALID,0,VALID,19.2153,VALID,148,VALID,0,
2011-09-07, 03:39:04,VALID,916.773,VALID,0,VALID,97.8542,VALID,0,VALID,19.2153,VALID,148,VALID,0.985937,
2011-09-07, 03:40:04,VALID,916.789,VALID,0,VALID,97.8465,VALID,0,VALID,19.1958,VALID,148,VALID,0.847266,
2011-09-07, 03:41:04,VALID,916.745,VALID,0,VALID,97.8389,VALID,0,VALID,19.1958,VALID,120,VALID,0.948828,
2011-09-07, 03:42:04,VALID,916.756,VALID,0,VALID,97.8465,VALID,0,VALID,19.2168,VALID,97,VALID,0.619922,
2011-09-07, 03:43:04,VALID,916.758,VALID,0,VALID,97.8389,VALID,0,VALID,19.1958,VALID,97,VALID,0.736719,
2011-09-07, 03:44:04,VALID,916.759,VALID,0,VALID,97.8465,VALID,0,VALID,19.2153,VALID,97,VALID,0.294141,